This is the latest recevied weather packets stored in our database for station/object HB9Y1. If no packets are shown the sender has not sent any weather packets the latest 10 day(s).
| Time | Temp. | Humidity | Pressure | Rain* | Wind** | Luminosity | Snow |
|---|---|---|---|---|---|---|---|
| 1777560203 | 15° C | 53% | 1017.7 hPa | 0 mm | - | 708 W/m² | - |
| 1777557807 | 15° C | 53% | 1017.9 hPa | 0 mm | - | 747 W/m² | - |
| 1777555999 | 14.44° C | 56% | 1017.7 hPa | 0 mm | - | 797 W/m² | - |
| 1777554208 | 13.33° C | 56% | 1017.7 hPa | 0 mm | - | 831 W/m² | - |
| 1777548799 | 11.67° C | 65% | 1017.7 hPa | 0 mm | - | 206 W/m² | - |
| 1777546399 | 11.11° C | 66% | 1018 hPa | 0 mm | - | 837 W/m² | - |
| 1777543427 | 11.11° C | 66% | 1017.7 hPa | 0 mm | - | 737 W/m² | - |
| 1777541600 | 11.11° C | 67% | 1017.7 hPa | 0 mm | - | 718 W/m² | - |
| 1777540399 | 10.56° C | 69% | 1017.9 hPa | 0 mm | - | 649 W/m² | - |
| 1777538040 | 10.56° C | 70% | 1017.7 hPa | 0 mm | - | 509 W/m² | - |
| 1777535027 | 10° C | 68% | 1017.7 hPa | 0 mm | - | 311 W/m² | - |
| 1777533807 | 8.33° C | 71% | 1017.7 hPa | 0 mm | - | 292 W/m² | - |
| 1777533199 | 7.78° C | 73% | 1017.7 hPa | 0 mm | - | 265 W/m² | - |
| 1777531999 | 6.67° C | 81% | 1017.7 hPa | 0 mm | - | 77 W/m² | - |
| 1777527219 | 5.56° C | 82% | 1017.6 hPa | 0 mm | - | 30 W/m² | - |
| 1777522399 | 6.11° C | 82% | 1016.9 hPa | 0 mm | - | 1 W/m² | - |
| 1777519407 | 6.11° C | 80% | 1016.9 hPa | 0 mm | - | 0 W/m² | - |
| 1777518228 | 6.11° C | 80% | 1016.9 hPa | 0 mm | - | 0 W/m² | - |
| 1777511599 | 6.11° C | 82% | 1017.1 hPa | 0 mm | - | 0 W/m² | - |
| 1777508608 | 6.11° C | 81% | 1017.1 hPa | 0 mm | - | 0 W/m² | - |
| 1777505599 | 5.56° C | 83% | 1017.2 hPa | 0 mm | - | 0 W/m² | - |
| 1777501999 | 6.11° C | 85% | 1016.9 hPa | 0 mm | - | 0 W/m² | - |
| 1777498399 | 5.56° C | 87% | 1016.6 hPa | 0 mm | - | 0 W/m² | - |
| 1777496607 | 6.11° C | 91% | 1016.9 hPa | 0 mm | - | 0 W/m² | - |
| 1777494799 | 6.11° C | 91% | 1016.9 hPa | 0 mm | - | 0 W/m² | - |
* Rain latest hour (hover to see other rain measurements)
** Current wind speed in m/s (hover to see current wind gust speed)